Time,TemperatureF,DewpointF,PressureIn,WindDirection,WindDirectionDegrees,WindSpeedMPH,WindSpeedGustMPH,Humidity,HourlyPrecipIn,Conditions,Clouds,dailyrainin,SolarRadiationWatts/m^2,SoftwareType,DateUTC
2013-01-09 00:05:00,46.8,42.2,30.24,WNW,284,0.0,0.0,84,0.00,,,0.00,0,Wunderground v.1.15,2013-01-08 23:05:00,
2013-01-09 00:15:00,47.0,42.7,30.24,WNW,284,0.0,0.0,85,0.00,,,0.00,0,Wunderground v.1.15,2013-01-08 23:15:00,
2013-01-09 00:26:00,46.9,42.6,30.24,WNW,284,0.0,0.0,85,0.00,,,0.00,0,Wunderground v.1.15,2013-01-08 23:26:00,
2013-01-09 00:35:00,46.6,42.0,30.24,WNW,284,0.0,1.0,84,0.00,,,0.00,0,Wunderground v.1.15,2013-01-08 23:35:00,
2013-01-09 00:40:00,46.4,42.1,30.23,WNW,284,1.0,2.0,85,0.00,,,0.00,0,Wunderground v.1.15,2013-01-08 23:40:00,
2013-01-09 00:50:00,46.6,42.3,30.23,WNW,284,1.0,2.0,85,0.00,,,0.00,0,Wunderground v.1.15,2013-01-08 23:50:00,
2013-01-09 01:05:00,46.2,41.9,30.23,WNW,284,0.0,0.0,85,0.00,,,0.00,0,Wunderground v.1.15,2013-01-09 00:05:00,
2013-01-09 01:15:00,46.1,41.8,30.22,WNW,284,0.0,1.0,85,0.00,,,0.00,0,Wunderground v.1.15,2013-01-09 00:15:00,
2013-01-09 01:25:00,45.9,41.9,30.22,WNW,284,1.0,1.0,86,0.00,,,0.00,0,Wunderground v.1.15,2013-01-09 00:25:00,
2013-01-09 01:35:00,45.8,41.5,30.21,WNW,284,1.0,2.0,85,0.00,,,0.00,0,Wunderground v.1.15,2013-01-09 00:35:00,
2013-01-09 01:50:00,45.5,41.3,30.21,WNW,284,1.0,1.0,85,0.00,,,0.00,0,Wunderground v.1.15,2013-01-09 00:50:00,
2013-01-09 02:05:00,45.5,41.6,30.21,WNW,284,0.0,0.0,86,0.00,,,0.00,0,Wunderground v.1.15,2013-01-09 01:05:00,
2013-01-09 02:16:00,45.5,41.3,30.21,WNW,284,0.0,0.0,85,0.00,,,0.00,0,Wunderground v.1.15,2013-01-09 01:16:00,
2013-01-09 02:25:00,45.2,41.0,30.21,WNW,284,1.0,1.0,85,0.00,,,0.00,0,Wunderground v.1.15,2013-01-09 01:25:00,
2013-01-09 02:30:00,45.0,41.1,30.21,WNW,283,1.0,1.0,86,0.00,,,0.00,0,Wunderground v.1.15,2013-01-09 01:30:00,
2013-01-09 02:45:00,45.1,41.2,30.21,WNW,284,1.0,1.0,86,0.00,,,0.00,0,Wunderground v.1.15,2013-01-09 01:45:00,
2013-01-09 02:56:00,45.1,41.2,30.21,WNW,284,0.0,0.0,86,0.00,,,0.00,0,Wunderground v.1.15,2013-01-09 01:56:00,
2013-01-09 03:05:00,45.0,40.8,30.21,WNW,284,0.0,0.0,85,0.00,,,0.00,0,Wunderground v.1.15,2013-01-09 02:05:00,
2013-01-09 03:15:00,44.8,40.6,30.21,WNW,284,0.0,0.0,85,0.00,,,0.00,0,Wunderground v.1.15,2013-01-09 02:15:00,
2013-01-09 03:25:00,44.5,40.3,30.21,WNW,284,2.0,2.0,85,0.00,,,0.00,0,Wunderground v.1.15,2013-01-09 02:25:00,
2013-01-09 03:40:00,44.2,40.0,30.21,WNW,284,0.0,0.0,85,0.00,,,0.00,0,Wunderground v.1.15,2013-01-09 02:40:00,
2013-01-09 03:50:00,44.1,39.9,30.21,WNW,284,0.0,0.0,85,0.00,,,0.00,0,Wunderground v.1.15,2013-01-09 02:50:00,
2013-01-09 04:05:00,43.8,39.6,30.20,WNW,283,1.0,1.0,85,0.00,,,0.01,0,Wunderground v.1.15,2013-01-09 03:05:00,
2013-01-09 04:20:00,43.4,39.2,30.20,WNW,283,0.0,0.0,85,0.00,,,0.01,0,Wunderground v.1.15,2013-01-09 03:20:00,
2013-01-09 04:35:00,43.5,39.3,30.19,WNW,284,0.0,0.0,85,0.00,,,0.01,0,Wunderground v.1.15,2013-01-09 03:35:00,
2013-01-09 04:50:00,43.3,39.1,30.19,WNW,284,1.0,1.0,85,0.00,,,0.01,0,Wunderground v.1.15,2013-01-09 03:50:00,
2013-01-09 05:05:00,43.1,38.9,30.19,WNW,284,1.0,1.0,85,0.00,,,0.01,0,Wunderground v.1.15,2013-01-09 04:05:00,
2013-01-09 05:10:00,43.1,38.9,30.19,WNW,284,0.0,1.0,85,0.00,,,0.01,0,Wunderground v.1.15,2013-01-09 04:10:00,
2013-01-09 05:25:00,42.9,38.7,30.18,WNW,283,0.0,0.0,85,0.00,,,0.01,0,Wunderground v.1.15,2013-01-09 04:25:00,
2013-01-09 05:35:00,42.7,38.5,30.18,WNW,284,1.0,2.0,85,0.00,,,0.01,0,Wunderground v.1.15,2013-01-09 04:35:00,
2013-01-09 05:50:00,42.4,38.2,30.18,WNW,284,1.0,1.0,85,0.00,,,0.01,0,Wunderground v.1.15,2013-01-09 04:50:00,
2013-01-09 06:05:00,42.3,38.1,30.18,WNW,284,0.0,0.0,85,0.00,,,0.01,0,Wunderground v.1.15,2013-01-09 05:05:00,
2013-01-09 06:15:00,42.2,38.0,30.17,WNW,283,1.0,1.0,85,0.00,,,0.01,0,Wunderground v.1.15,2013-01-09 05:15:00,
2013-01-09 06:31:00,42.2,38.0,30.17,WNW,283,0.0,2.0,85,0.00,,,0.01,0,Wunderground v.1.15,2013-01-09 05:31:00,
2013-01-09 06:45:00,42.0,37.5,30.17,WNW,284,0.0,0.0,84,0.00,,,0.01,0,Wunderground v.1.15,2013-01-09 05:45:00,
2013-01-09 06:56:00,41.8,37.3,30.17,WNW,284,0.0,0.0,84,0.00,,,0.01,0,Wunderground v.1.15,2013-01-09 05:56:00,
2013-01-09 07:05:00,41.6,37.1,30.17,WNW,284,0.0,0.0,84,0.00,,,0.01,0,Wunderground v.1.15,2013-01-09 06:05:00,
2013-01-09 07:10:00,41.4,36.9,30.18,WNW,283,1.0,1.0,84,0.00,,,0.01,0,Wunderground v.1.15,2013-01-09 06:10:00,
2013-01-09 07:20:00,41.1,36.6,30.18,WNW,284,1.0,1.0,84,0.00,,,0.01,0,Wunderground v.1.15,2013-01-09 06:20:00,
2013-01-09 07:30:00,41.1,36.6,30.18,WNW,283,0.0,0.0,84,0.00,,,0.01,0,Wunderground v.1.15,2013-01-09 06:30:00,
2013-01-09 07:45:00,41.1,36.6,30.18,WNW,284,0.0,0.0,84,0.00,,,0.01,0,Wunderground v.1.15,2013-01-09 06:45:00,
2013-01-09 07:55:00,41.1,36.6,30.18,WNW,284,1.0,1.0,84,0.00,,,0.01,0,Wunderground v.1.15,2013-01-09 06:55:00,
2013-01-09 08:10:00,41.2,36.4,30.18,WNW,283,1.0,1.0,83,0.00,,,0.01,5,Wunderground v.1.15,2013-01-09 07:10:00,
2013-01-09 08:25:00,41.5,36.7,30.18,WNW,284,1.0,1.0,83,0.00,,,0.01,32,Wunderground v.1.15,2013-01-09 07:25:00,
2013-01-09 08:35:00,41.9,36.8,30.18,WNW,284,0.0,0.0,82,0.00,,,0.01,54,Wunderground v.1.15,2013-01-09 07:35:00,
2013-01-09 08:45:00,42.4,37.3,30.18,WNW,283,0.0,0.0,82,0.00,,,0.01,81,Wunderground v.1.15,2013-01-09 07:45:00,
2013-01-09 08:56:00,43.2,38.1,30.19,WNW,283,0.0,1.0,82,0.00,,,0.01,105,Wunderground v.1.15,2013-01-09 07:56:00,
2013-01-09 09:05:00,43.9,38.4,30.19,WNW,284,1.0,1.0,81,0.00,,,0.01,130,Wunderground v.1.15,2013-01-09 08:05:00,
2013-01-09 09:10:00,44.4,38.9,30.19,WNW,284,1.0,2.0,81,0.00,,,0.01,141,Wunderground v.1.15,2013-01-09 08:10:00,
2013-01-09 09:20:00,45.4,39.9,30.19,WNW,283,0.0,1.0,81,0.00,,,0.01,163,Wunderground v.1.15,2013-01-09 08:20:00,
2013-01-09 09:35:00,47.6,41.7,30.19,WNW,284,0.0,0.0,80,0.00,,,0.01,197,Wunderground v.1.15,2013-01-09 08:35:00,
2013-01-09 09:41:00,48.6,43.0,30.19,WNW,284,0.0,0.0,81,0.00,,,0.01,213,Wunderground v.1.15,2013-01-09 08:41:00,
2013-01-09 09:55:00,50.9,44.3,30.20,WNW,284,1.0,2.0,78,0.00,,,0.01,255,Wunderground v.1.15,2013-01-09 08:55:00,
2013-01-09 10:05:00,51.5,44.5,30.20,WNW,284,1.0,1.0,77,0.00,,,0.01,287,Wunderground v.1.15,2013-01-09 09:05:00,
2013-01-09 10:15:00,52.7,45.3,30.20,WNW,284,0.0,1.0,76,0.00,,,0.01,315,Wunderground v.1.15,2013-01-09 09:15:00,
2013-01-09 10:30:00,55.0,47.6,30.20,South,181,1.0,3.0,76,0.00,,,0.01,350,Wunderground v.1.15,2013-01-09 09:30:00,
2013-01-09 10:40:00,56.5,48.7,30.20,South,187,2.0,2.0,75,0.00,,,0.01,371,Wunderground v.1.15,2013-01-09 09:40:00,
2013-01-09 10:50:00,57.0,48.4,30.20,SSE,167,3.0,3.0,73,0.00,,,0.01,390,Wunderground v.1.15,2013-01-09 09:50:00,
2013-01-09 11:05:00,57.2,48.3,30.19,SSW,198,3.0,4.0,72,0.00,,,0.01,418,Wunderground v.1.15,2013-01-09 10:05:00,
2013-01-09 11:10:00,57.2,48.3,30.20,South,190,4.0,4.0,72,0.00,,,0.01,427,Wunderground v.1.15,2013-01-09 10:10:00,
2013-01-09 11:25:00,57.3,48.3,30.20,SSW,201,4.0,4.0,72,0.00,,,0.01,446,Wunderground v.1.15,2013-01-09 10:25:00,
2013-01-09 11:35:00,57.2,48.3,30.20,South,190,5.0,5.0,72,0.00,,,0.01,461,Wunderground v.1.15,2013-01-09 10:35:00,
2013-01-09 11:45:00,57.1,48.2,30.19,SE,133,5.0,6.0,72,0.00,,,0.01,473,Wunderground v.1.15,2013-01-09 10:45:00,
2013-01-09 12:05:00,57.3,48.7,30.18,South,183,5.0,5.0,73,0.00,,,0.01,496,Wunderground v.1.15,2013-01-09 11:05:00,
2013-01-09 12:15:00,57.9,48.6,30.18,South,187,5.0,5.0,71,0.00,,,0.01,501,Wunderground v.1.15,2013-01-09 11:15:00,
2013-01-09 12:26:00,58.6,48.8,30.17,SSW,192,4.0,5.0,70,0.00,,,0.01,508,Wunderground v.1.15,2013-01-09 11:26:00,
2013-01-09 12:40:00,58.8,48.3,30.17,South,180,6.0,6.0,68,0.00,,,0.01,512,Wunderground v.1.15,2013-01-09 11:40:00,
2013-01-09 12:50:00,59.0,48.1,30.16,South,177,6.0,6.0,67,0.00,,,0.01,515,Wunderground v.1.15,2013-01-09 11:50:00,
2013-01-09 13:05:00,59.0,47.7,30.15,South,178,5.0,7.0,66,0.00,,,0.01,515,Wunderground v.1.15,2013-01-09 12:05:00,
2013-01-09 13:20:00,59.0,47.7,30.15,SSW,205,6.0,6.0,66,0.00,,,0.01,510,Wunderground v.1.15,2013-01-09 12:20:00,
2013-01-09 13:30:00,59.0,47.2,30.14,SSE,149,6.0,7.0,65,0.00,,,0.01,506,Wunderground v.1.15,2013-01-09 12:30:00,
2013-01-09 13:40:00,59.0,47.2,30.14,South,171,6.0,6.0,65,0.00,,,0.01,499,Wunderground v.1.15,2013-01-09 12:40:00,
2013-01-09 13:51:00,59.0,47.2,30.13,South,186,6.0,6.0,65,0.00,,,0.01,492,Wunderground v.1.15,2013-01-09 12:51:00,
2013-01-09 14:06:00,59.0,46.8,30.13,SSE,153,6.0,6.0,64,0.00,,,0.01,473,Wunderground v.1.15,2013-01-09 13:06:00,
2013-01-09 14:21:00,59.0,46.8,30.13,South,188,6.0,6.0,64,0.00,,,0.01,457,Wunderground v.1.15,2013-01-09 13:21:00,
2013-01-09 14:35:00,59.0,46.4,30.13,South,179,5.0,8.0,63,0.00,,,0.01,415,Wunderground v.1.15,2013-01-09 13:35:00,
2013-01-09 14:45:00,59.0,46.4,30.12,South,182,5.0,5.0,63,0.00,,,0.01,420,Wunderground v.1.15,2013-01-09 13:45:00,
2013-01-09 15:05:00,59.0,46.8,30.13,SSW,194,5.0,9.0,64,0.00,,,0.01,366,Wunderground v.1.15,2013-01-09 14:05:00,
2013-01-09 15:15:00,58.6,46.9,30.13,SW,217,6.0,6.0,65,0.00,,,0.01,355,Wunderground v.1.15,2013-01-09 14:15:00,
2013-01-09 15:26:00,58.3,47.4,30.13,SSW,202,5.0,7.0,67,0.00,,,0.01,334,Wunderground v.1.15,2013-01-09 14:26:00,
2013-01-09 15:40:00,57.8,47.7,30.13,SW,236,5.0,7.0,69,0.00,,,0.01,287,Wunderground v.1.15,2013-01-09 14:40:00,
2013-01-09 15:50:00,57.0,47.3,30.13,South,188,7.0,7.0,70,0.00,,,0.01,218,Wunderground v.1.15,2013-01-09 14:50:00,
2013-01-09 16:06:00,56.0,46.7,30.13,SSE,163,7.0,7.0,71,0.00,,,0.01,192,Wunderground v.1.15,2013-01-09 15:06:00,
2013-01-09 16:15:00,55.7,46.8,30.13,WSW,240,6.0,7.0,72,0.00,,,0.01,183,Wunderground v.1.15,2013-01-09 15:15:00,
2013-01-09 16:20:00,55.4,46.5,30.12,SW,215,5.0,7.0,72,0.00,,,0.01,169,Wunderground v.1.15,2013-01-09 15:20:00,
2013-01-09 16:31:00,55.0,46.1,30.13,SW,218,4.0,4.0,72,0.00,,,0.01,105,Wunderground v.1.15,2013-01-09 15:31:00,
2013-01-09 16:45:00,54.3,45.8,30.13,SW,217,3.0,3.0,73,0.00,,,0.01,109,Wunderground v.1.15,2013-01-09 15:45:00,
2013-01-09 17:05:00,53.2,45.1,30.12,West,259,4.0,6.0,74,0.00,,,0.01,51,Wunderground v.1.15,2013-01-09 16:05:00,
2013-01-09 17:15:00,52.7,45.0,30.12,WSW,240,4.0,4.0,75,0.00,,,0.01,37,Wunderground v.1.15,2013-01-09 16:15:00,
2013-01-09 17:30:00,52.0,44.7,30.12,SW,226,3.0,3.0,76,0.00,,,0.01,16,Wunderground v.1.15,2013-01-09 16:30:00,
2013-01-09 17:46:00,51.5,44.5,30.12,WSW,244,2.0,4.0,77,0.00,,,0.01,0,Wunderground v.1.15,2013-01-09 16:46:00,
2013-01-09 18:05:00,50.9,44.3,30.12,SW,217,3.0,4.0,78,0.00,,,0.01,0,Wunderground v.1.15,2013-01-09 17:05:00,
2013-01-09 18:20:00,50.7,44.1,30.12,WSW,251,3.0,4.0,78,0.00,,,0.01,0,Wunderground v.1.15,2013-01-09 17:20:00,
2013-01-09 18:30:00,50.6,44.0,30.12,SW,234,3.0,3.0,78,0.00,,,0.01,0,Wunderground v.1.15,2013-01-09 17:30:00,
2013-01-09 18:45:00,50.4,43.8,30.11,SW,230,2.0,2.0,78,0.00,,,0.01,0,Wunderground v.1.15,2013-01-09 17:45:00,
2013-01-09 18:56:00,50.4,43.5,30.12,West,263,4.0,4.0,77,0.00,,,0.01,0,Wunderground v.1.15,2013-01-09 17:56:00,
2013-01-09 19:05:00,50.3,43.0,30.12,WSW,240,4.0,4.0,76,0.00,,,0.01,0,Wunderground v.1.15,2013-01-09 18:05:00,
2013-01-09 19:16:00,50.3,43.0,30.12,WSW,254,4.0,10.0,76,0.00,,,0.01,0,Wunderground v.1.15,2013-01-09 18:16:00,
2013-01-09 19:25:00,50.3,42.3,30.13,SW,226,6.0,10.0,74,0.00,,,0.01,0,Wunderground v.1.15,2013-01-09 18:25:00,
2013-01-09 19:31:00,50.3,42.3,30.12,SW,219,5.0,5.0,74,0.00,,,0.01,0,Wunderground v.1.15,2013-01-09 18:31:00,
2013-01-09 19:45:00,50.1,41.8,30.12,SW,217,2.0,2.0,73,0.00,,,0.01,0,Wunderground v.1.15,2013-01-09 18:45:00,
2013-01-09 19:51:00,50.0,41.7,30.12,West,267,2.0,3.0,73,0.00,,,0.01,0,Wunderground v.1.15,2013-01-09 18:51:00,
2013-01-09 19:55:00,49.9,41.6,30.12,SW,236,2.0,2.0,73,0.00,,,0.01,0,Wunderground v.1.15,2013-01-09 18:55:00,
2013-01-09 20:10:00,49.6,40.9,30.12,WSW,250,4.0,4.0,72,0.00,,,0.01,0,Wunderground v.1.15,2013-01-09 19:10:00,
2013-01-09 20:15:00,49.5,40.5,30.12,SW,232,4.0,4.0,71,0.00,,,0.01,0,Wunderground v.1.15,2013-01-09 19:15:00,
2013-01-09 20:25:00,49.4,40.7,30.11,WSW,239,3.0,4.0,72,0.00,,,0.01,0,Wunderground v.1.15,2013-01-09 19:25:00,
2013-01-09 20:36:00,49.6,40.9,30.11,SW,227,6.0,6.0,72,0.00,,,0.01,0,Wunderground v.1.15,2013-01-09 19:36:00,
2013-01-09 20:45:00,49.6,40.9,30.11,SW,227,7.0,7.0,72,0.00,,,0.01,0,Wunderground v.1.15,2013-01-09 19:45:00,
2013-01-09 20:51:00,49.7,41.0,30.11,SW,221,7.0,7.0,72,0.00,,,0.01,0,Wunderground v.1.15,2013-01-09 19:51:00,
2013-01-09 21:10:00,49.6,41.3,30.10,WSW,250,5.0,5.0,73,0.00,,,0.01,0,Wunderground v.1.15,2013-01-09 20:10:00,
2013-01-09 21:21:00,49.7,41.4,30.11,SW,223,5.0,5.0,73,0.00,,,0.01,0,Wunderground v.1.15,2013-01-09 20:21:00,
2013-01-09 21:40:00,48.9,41.0,30.10,SW,232,5.0,5.0,74,0.00,,,0.01,0,Wunderground v.1.15,2013-01-09 20:40:00,
2013-01-09 21:50:00,48.6,40.7,30.11,WSW,248,5.0,5.0,74,0.00,,,0.01,0,Wunderground v.1.15,2013-01-09 20:50:00,
2013-01-09 22:05:00,48.5,40.9,30.10,South,172,6.0,6.0,75,0.00,,,0.01,0,Wunderground v.1.15,2013-01-09 21:05:00,
2013-01-09 22:15:00,48.4,40.5,30.09,SSW,192,5.0,5.0,74,0.00,,,0.01,0,Wunderground v.1.15,2013-01-09 21:15:00,
2013-01-09 22:25:00,48.3,40.0,30.09,SSW,199,5.0,5.0,73,0.00,,,0.01,0,Wunderground v.1.15,2013-01-09 21:25:00,
2013-01-09 22:35:00,48.2,39.9,30.09,SE,146,4.0,4.0,73,0.00,,,0.01,0,Wunderground v.1.15,2013-01-09 21:35:00,
2013-01-09 22:40:00,48.2,39.6,30.09,SW,219,3.0,4.0,72,0.00,,,0.01,0,Wunderground v.1.15,2013-01-09 21:40:00,
2013-01-09 22:55:00,48.6,38.9,30.09,SE,146,2.0,2.0,69,0.00,,,0.01,0,Wunderground v.1.15,2013-01-09 21:55:00,
2013-01-09 23:05:00,48.6,38.5,30.09,SSE,163,4.0,4.0,68,0.00,,,0.01,0,Wunderground v.1.15,2013-01-09 22:05:00,
2013-01-09 23:11:00,48.6,38.5,30.09,SW,223,4.0,4.0,68,0.00,,,0.01,0,Wunderground v.1.15,2013-01-09 22:11:00,
2013-01-09 23:20:00,48.7,38.6,30.09,SSE,167,5.0,5.0,68,0.00,,,0.01,0,Wunderground v.1.15,2013-01-09 22:20:00,
2013-01-09 23:25:00,48.6,38.5,30.08,SE,130,4.0,4.0,68,0.00,,,0.01,0,Wunderground v.1.15,2013-01-09 22:25:00,
2013-01-09 23:40:00,48.6,38.5,30.09,SE,138,5.0,5.0,68,0.00,,,0.01,0,Wunderground v.1.15,2013-01-09 22:40:00,
2013-01-09 23:55:00,48.4,38.3,30.08,South,190,4.0,7.0,68,0.00,,,0.01,0,Wunderground v.1.15,2013-01-09 22:55:00,